STARLINK-1871 (47157 NORAD) Tracking and Keplerian Element Data

This shows tracking and keplerian element data for the satellite.

Feedback or suggestion? Click here.




ElementValue
Catalog47157
NameSTARLINK-1871
Epoch Orbit180
Epoch Day99.91667824
Epoch Year2021
RAAN78.6687
Inclination53.0562
Eccentricity0.0001371
Argument of Perigee75.9127
Mean Anonmoly4.9833
Mean Motion15.06392574
Decay Rate0.00023481
L11 47157U 20088AM 21099.91667824 .00023481 00000-0 15903-2 0 9994
L22 47157 53.0562 78.6687 0001371 75.9127 4.9833 15.06392574 1800

Live tracking and technical data element details for STARLINK-1871 (NORAD 47157). STARLINK-1871 can be tracked NOW for your location showing map with azimuth and elevation plus other details from your city location.

Track the satellite on the map from your city or location and see movement details for azimuth, elevation, latitude, longitude, range, height, and movement on the map or in text.







IsCatalogInMostPopularTable: catalog: 47157, numindb: 49
Update: records affected: 1



GetName: 47157 STARLINK-1871

Hit Count: updated at: Sat, 10 Apr 2021 19:05:23 GMT